When you browse on this site, cookies collect data to enhance your experience and personalize the content and advertising you see.
Visit our Privacy Policy to learn more. By continuing to use the site, you agree to this use of cookies and data.
  • In Deutschland
  • Länderverzeichnis
  • Für 7 Tage
  • Wassertemperatur
  • Satellitenkarten
  • Wetterkarte
  • Widgets
  • user-avatar
    Anmelden

    Stündliche Wetter Namibe

    Heute, 23 Juli, Dienstag

    Zeit Temperatur Niederschläge Wind Luftdruck Luftfeuchtigkeit
    00:00 +17°C° 0 mm 4 m/S 761 mmHg 89%
    01:00 +17°C° 0 mm 4 m/S 761 mmHg 92%
    02:00 +15°C° 0 mm 4 m/S 760 mmHg 92%
    03:00 +15°C° 0 mm 4 m/S 760 mmHg 93%
    04:00 +15°C° 0 mm 4 m/S 760 mmHg 94%
    05:00 +15°C° 0 mm 4 m/S 760 mmHg 94%
    06:00 +15°C° 0 mm 4 m/S 760 mmHg 94%
    07:00 +15°C° 0 mm 4 m/S 760 mmHg 93%
    08:00 +18°C° 0 mm 4 m/S 761 mmHg 82%
    09:00 +20°C° 0 mm 3 m/S 761 mmHg 71%
    10:00 +22°C° 0 mm 3 m/S 761 mmHg 60%
    11:00 +25°C° 0 mm 4 m/S 761 mmHg 55%
    12:00 +27°C° 0 mm 4 m/S 760 mmHg 49%
    13:00 +28°C° 0 mm 5 m/S 759 mmHg 44%
    14:00 +27°C° 0 mm 5 m/S 758 mmHg 49%
    15:00 +26°C° 0 mm 5 m/S 758 mmHg 55%
    16:00 +25°C° 0 mm 5 m/S 757 mmHg 60%
    17:00 +22°C° 0 mm 5 m/S 758 mmHg 68%
    18:00 +20°C° 0 mm 5 m/S 758 mmHg 75%
    19:00 +19°C° 0 mm 5 m/S 759 mmHg 83%
    20:00 +18°C° 0 mm 4 m/S 759 mmHg 85%
    21:00 +17°C° 0 mm 4 m/S 759 mmHg 87%
    22:00 +16°C° 0 mm 3 m/S 760 mmHg 88%
    23:00 +16°C° 0 mm 3 m/S 759 mmHg 88%

    Morgen, 24 Juli, Mittwoch

    Zeit Temperatur Niederschläge Wind Luftdruck Luftfeuchtigkeit
    00:00 +16°C° 0 mm 3 m/S 759 mmHg 87%
    01:00 +16°C° 0 mm 3 m/S 758 mmHg 86%
    02:00 +16°C° 0 mm 2 m/S 758 mmHg 86%
    03:00 +15°C° 0 mm 2 m/S 758 mmHg 87%
    04:00 +15°C° 0 mm 2 m/S 757 mmHg 87%
    05:00 +16°C° 0 mm 1 m/S 757 mmHg 84%
    06:00 +16°C° 0 mm 1 m/S 758 mmHg 81%
    07:00 +18°C° 0 mm 1 m/S 758 mmHg 79%
    08:00 +21°C° 0 mm 1 m/S 758 mmHg 65%
    09:00 +24°C° 0 mm 1 m/S 758 mmHg 52%
    10:00 +28°C° 0 mm 1 m/S 759 mmHg 39%
    11:00 +28°C° 0 mm 2 m/S 758 mmHg 40%
    12:00 +28°C° 0 mm 3 m/S 757 mmHg 41%
    13:00 +29°C° 0 mm 4 m/S 757 mmHg 43%
    14:00 +28°C° 0 mm 4 m/S 756 mmHg 46%
    15:00 +27°C° 0 mm 4 m/S 756 mmHg 50%
    16:00 +26°C° 0 mm 4 m/S 756 mmHg 54%
    17:00 +24°C° 0 mm 3 m/S 757 mmHg 63%
    18:00 +21°C° 0 mm 3 m/S 757 mmHg 72%
    19:00 +19°C° 0 mm 2 m/S 758 mmHg 82%
    20:00 +19°C° 0 mm 2 m/S 758 mmHg 81%
    21:00 +19°C° 0 mm 2 m/S 759 mmHg 80%
    22:00 +19°C° 0 mm 2 m/S 759 mmHg 80%
    23:00 +18°C° 0 mm 2 m/S 759 mmHg 80%

    übermorgen, 25 Juli, Donnerstag

    Zeit Temperatur Niederschläge Wind Luftdruck Luftfeuchtigkeit
    00:00 +18°C° 0 mm 3 m/S 759 mmHg 81%
    01:00 +17°C° 0 mm 3 m/S 759 mmHg 82%
    02:00 +17°C° 0 mm 3 m/S 759 mmHg 83%
    03:00 +17°C° 0 mm 3 m/S 758 mmHg 83%
    04:00 +16°C° 0 mm 3 m/S 758 mmHg 84%
    05:00 +16°C° 0 mm 2 m/S 758 mmHg 84%
    06:00 +16°C° 0 mm 1 m/S 759 mmHg 84%
    07:00 +16°C° 0 mm 1 m/S 759 mmHg 83%
    08:00 +20°C° 0 mm 1 m/S 759 mmHg 70%
    09:00 +24°C° 0 mm 2 m/S 759 mmHg 57%
    10:00 +27°C° 0 mm 2 m/S 759 mmHg 45%
    11:00 +27°C° 0 mm 3 m/S 759 mmHg 46%
    12:00 +27°C° 0 mm 4 m/S 759 mmHg 48%
    13:00 +27°C° 0 mm 5 m/S 758 mmHg 50%
    14:00 +26°C° 0 mm 5 m/S 758 mmHg 54%
    15:00 +25°C° 0 mm 5 m/S 758 mmHg 58%
    16:00 +23°C° 0 mm 5 m/S 758 mmHg 62%
    17:00 +22°C° 0 mm 4 m/S 758 mmHg 71%
    18:00 +20°C° 0 mm 3 m/S 759 mmHg 80%
    19:00 +19°C° 0 mm 2 m/S 759 mmHg 89%
    20:00 +18°C° 0 mm 2 m/S 760 mmHg 89%
    21:00 +18°C° 0 mm 2 m/S 760 mmHg 89%
    22:00 +18°C° 0 mm 2 m/S 761 mmHg 89%
    23:00 +18°C° 0 mm 2 m/S 760 mmHg 88%

    26 Juli, Freitag

    Zeit Temperatur Niederschläge Wind Luftdruck Luftfeuchtigkeit
    00:00 +18°C° 0 mm 2 m/S 760 mmHg 86%
    01:00 +18°C° 0 mm 1 m/S 759 mmHg 85%
    02:00 +18°C° 0 mm 1 m/S 759 mmHg 86%
    03:00 +18°C° 0 mm 1 m/S 759 mmHg 88%
    04:00 +16°C° 0 mm 1 m/S 759 mmHg 89%
    05:00 +16°C° 0 mm 1 m/S 759 mmHg 89%
    06:00 +16°C° 0 mm 1 m/S 759 mmHg 89%
    07:00 +16°C° 0 mm 1 m/S 759 mmHg 89%
    08:00 +20°C° 0 mm 1 m/S 760 mmHg 76%
    09:00 +23°C° 0 mm 1 m/S 760 mmHg 62%
    10:00 +26°C° 0 mm 2 m/S 760 mmHg 48%
    11:00 +27°C° 0 mm 3 m/S 759 mmHg 50%
    12:00 +27°C° 0 mm 4 m/S 758 mmHg 51%
    13:00 +27°C° 0 mm 5 m/S 758 mmHg 53%
    14:00 +26°C° 0 mm 5 m/S 758 mmHg 57%
    15:00 +25°C° 0 mm 5 m/S 757 mmHg 61%
    16:00 +23°C° 0 mm 5 m/S 757 mmHg 65%
    17:00 +22°C° 0 mm 4 m/S 758 mmHg 73%
    18:00 +20°C° 0 mm 2 m/S 758 mmHg 81%
    19:00 +20°C° 0 mm 1 m/S 759 mmHg 88%
    20:00 +20°C° 0 mm 1 m/S 759 mmHg 89%
    21:00 +19°C° 0 mm 1 m/S 760 mmHg 90%
    22:00 +19°C° 0 mm 1 m/S 760 mmHg 91%
    23:00 +18°C° 0 mm 1 m/S 760 mmHg 91%

    27 Juli, Samstag

    Zeit Temperatur Niederschläge Wind Luftdruck Luftfeuchtigkeit
    00:00 +18°C° 0 mm 1 m/S 760 mmHg 90%
    01:00 +16°C° 0 mm 0 m/S 759 mmHg 90%
    02:00 +16°C° 0 mm 0 m/S 759 mmHg 91%
    03:00 +15°C° 0 mm 0 m/S 759 mmHg 91%
    04:00 +15°C° 0 mm 0 m/S 759 mmHg 91%
    05:00 +15°C° 0 mm 0 m/S 759 mmHg 92%
    06:00 +16°C° 0 mm 1 m/S 759 mmHg 93%
    07:00 +16°C° 0 mm 1 m/S 759 mmHg 93%
    08:00 +20°C° 0 mm 1 m/S 760 mmHg 84%
    09:00 +21°C° 0 mm 2 m/S 760 mmHg 75%
    10:00 +24°C° 0 mm 2 m/S 760 mmHg 65%
    11:00 +25°C° 0 mm 3 m/S 759 mmHg 63%
    12:00 +26°C° 0 mm 3 m/S 759 mmHg 62%
    13:00 +26°C° 0 mm 4 m/S 758 mmHg 60%
    14:00 +25°C° 0 mm 4 m/S 758 mmHg 63%
    15:00 +25°C° 0 mm 4 m/S 757 mmHg 66%
    16:00 +23°C° 0 mm 4 m/S 757 mmHg 69%
    17:00 +22°C° 0 mm 3 m/S 758 mmHg 74%
    18:00 +21°C° 0 mm 2 m/S 758 mmHg 80%
    19:00 +21°C° 0 mm 1 m/S 759 mmHg 85%
    20:00 +21°C° 0 mm 1 m/S 759 mmHg 84%
    21:00 +21°C° 0 mm 1 m/S 760 mmHg 83%
    22:00 +21°C° 0 mm 1 m/S 760 mmHg 83%
    23:00 +20°C° 0 mm 1 m/S 760 mmHg 86%

    28 Juli, Sonntag

    Zeit Temperatur Niederschläge Wind Luftdruck Luftfeuchtigkeit
    00:00 +19°C° 0 mm 1 m/S 760 mmHg 89%
    01:00 +18°C° 0 mm 1 m/S 759 mmHg 92%
    02:00 +18°C° 0 mm 1 m/S 759 mmHg 93%
    03:00 +18°C° 0 mm 1 m/S 759 mmHg 93%
    04:00 +16°C° 0 mm 1 m/S 759 mmHg 94%
    05:00 +16°C° 0 mm 1 m/S 759 mmHg 94%
    06:00 +16°C° 0 mm 1 m/S 760 mmHg 95%
    07:00 +16°C° 0 mm 1 m/S 760 mmHg 95%
    08:00 +19°C° 0 mm 1 m/S 760 mmHg 87%
    09:00 +21°C° 0 mm 1 m/S 760 mmHg 78%
    10:00 +23°C° 0 mm 2 m/S 761 mmHg 70%
    11:00 +24°C° 0 mm 2 m/S 760 mmHg 67%
    12:00 +25°C° 0 mm 3 m/S 760 mmHg 63%
    13:00 +26°C° 0 mm 4 m/S 759 mmHg 60%
    14:00 +25°C° 0 mm 4 m/S 759 mmHg 63%
    15:00 +23°C° 0 mm 4 m/S 759 mmHg 66%
    16:00 +23°C° 0 mm 4 m/S 758 mmHg 69%
    17:00 +21°C° 0 mm 4 m/S 759 mmHg 74%
    18:00 +20°C° 0 mm 4 m/S 759 mmHg 79%
    19:00 +19°C° 0 mm 4 m/S 760 mmHg 84%
    20:00 +18°C° 0 mm 4 m/S 760 mmHg 86%
    21:00 +18°C° 0 mm 4 m/S 761 mmHg 87%
    22:00 +16°C° 0 mm 5 m/S 761 mmHg 89%
    23:00 +16°C° 0 mm 5 m/S 761 mmHg 90%
    Mehr zeigen